Date String (YYYY-MM-DD hh:mm:ss) UTC,Instrument flags,Ambient pressure (hPa),Sample flow (lpm),Bypass flow (lpm),Sample temperature (°C),Ambient temperature (°C),ASC tube jacket temperature (°C),LED temperature (°C),Box temperature (°C),Sample RH (%),Span deviation,Mass concentration (μg/m³),Mass concentration (μg/m³),Mass concentration (μg/m³)
DateTimeUTC,F1_M11,P_M11,Q1_M11,Q2_M11,T1_M11,T2_M11,T3_M11,T4_M11,T5_M11,U1_M11,ZSPAN_M11,X2_M11,X0_M11,X1_M11
2022-10-12 00:00:00,,0821.1,5.00,0.00,29.9,28.6,00.0,38.6,31.7,08.4,0000.0,0004.39,0009.16,0003.92
2022-10-12 00:01:00,,0821.1,5.01,0.00,29.9,28.6,00.0,38.6,31.8,08.5,0000.0,0004.41,0008.95,0003.92
2022-10-12 00:02:00,,0821.2,4.99,0.00,29.9,28.6,00.0,38.6,31.8,08.3,0000.0,0004.38,0008.96,0003.92
2022-10-12 00:03:00,,0821.3,5.00,0.00,29.9,28.6,00.0,38.6,31.7,08.5,0000.0,0004.38,0008.92,0003.91
2022-10-12 00:04:00,,0821.4,5.01,0.00,29.9,28.6,00.0,38.7,31.8,08.4,0000.0,0004.39,0008.54,0003.90
2022-10-12 00:05:00,,0821.4,4.99,0.00,29.9,28.3,00.0,38.7,31.7,08.1,0000.0,0004.40,0008.62,0003.89
2022-10-12 00:06:00,,0821.5,4.99,0.00,29.9,27.0,00.0,38.6,31.6,08.1,0000.0,0004.42,0009.27,0003.91
2022-10-12 00:07:00,,0821.5,5.01,0.00,29.9,26.4,00.0,38.6,31.5,08.2,0000.0,0004.44,0009.28,0003.91
2022-10-12 00:08:00,,0821.6,5.00,0.00,29.8,26.5,00.0,38.5,31.4,08.0,0000.0,0004.44,0009.20,0003.92
2022-10-12 00:09:00,,0821.8,4.99,0.00,29.7,26.8,00.0,38.5,31.3,08.1,0000.0,0004.43,0009.15,0003.93
2022-10-12 00:10:00,,0821.9,5.00,0.00,29.7,27.1,00.0,38.5,31.3,08.1,0000.0,0004.48,0009.72,0003.95
2022-10-12 00:11:00,,0821.9,5.00,0.00,29.6,27.4,00.0,38.5,31.4,08.3,0000.0,0004.44,0009.55,0003.97
2022-10-12 00:12:00,,0822.0,5.00,0.00,29.6,27.6,00.0,38.4,31.4,10.6,0000.0,0004.53,0010.42,0003.99
2022-10-12 00:13:00,,0822.0,5.00,0.00,29.6,27.8,00.0,38.4,31.4,12.8,0000.0,0004.98,0014.81,0004.06
2022-10-12 00:14:00,,0821.8,5.00,0.00,29.6,27.9,00.0,38.4,31.4,13.3,0000.0,0005.59,0019.85,0004.17
2022-10-12 00:15:00,,0822.0,5.01,0.00,29.6,27.9,00.0,38.4,31.4,13.6,0000.0,0006.16,0023.48,0004.29
2022-10-12 00:16:00,,0821.9,4.99,0.00,29.6,28.0,00.0,38.4,31.4,13.7,0000.0,0006.89,0028.77,0004.41
2022-10-12 00:17:00,,0821.8,5.00,0.00,29.6,28.0,00.0,38.4,31.4,14.0,0000.0,0007.63,0034.18,0004.52
2022-10-12 00:18:00,,0821.8,5.01,0.00,29.6,28.0,00.0,38.4,31.4,14.1,0000.0,0008.19,0037.80,0004.62
2022-10-12 00:19:00,,0821.8,5.01,0.00,29.6,28.0,00.0,38.4,31.4,14.3,0000.0,0008.72,0041.99,0004.74
2022-10-12 00:20:00,,0821.8,5.01,0.00,29.6,28.1,00.0,38.4,31.4,14.4,0000.0,0009.26,0046.04,0004.86
2022-10-12 00:21:00,,0821.8,4.99,0.00,29.6,28.0,00.0,38.4,31.4,14.6,0001.1,0009.80,0052.70,0004.98
2022-10-12 00:22:00,,0821.8,5.01,0.00,29.6,28.0,00.0,38.4,31.4,14.7,0002.8,0010.35,0056.88,0005.10
2022-10-12 00:23:00,,0821.7,5.00,0.00,29.6,27.9,00.0,38.4,31.3,14.8,0002.8,0010.89,0058.91,0005.22
2022-10-12 00:24:00,,0821.8,5.00,0.00,29.6,27.9,00.0,38.4,31.3,14.8,0003.2,0010.94,0057.01,0005.28
2022-10-12 00:25:00,,0821.8,5.00,0.00,29.5,27.9,00.0,38.4,31.3,14.9,0002.9,0010.85,0054.61,0005.30
2022-10-12 00:26:00,,0822.1,5.01,0.00,29.5,27.8,00.0,38.4,31.3,15.0,0003.1,0010.78,0054.04,0005.33
2022-10-12 00:27:00,,0822.2,5.00,0.00,29.5,27.8,00.0,38.4,31.3,15.0,0003.3,0010.60,0051.34,0005.37
2022-10-12 00:28:00,,0822.3,5.01,0.00,29.5,27.9,00.0,38.4,31.3,15.1,0003.0,0010.45,0049.46,0005.40
2022-10-12 00:29:00,,0822.3,4.99,0.00,29.5,27.9,00.0,38.4,31.3,15.1,0002.6,0010.42,0048.76,0005.44
2022-10-12 00:30:00,,0822.4,5.00,0.00,29.5,27.9,00.0,38.4,31.3,15.2,0002.3,0010.43,0047.45,0005.46
2022-10-12 00:31:00,,0822.3,5.01,0.00,29.5,27.9,00.0,38.4,31.3,15.2,0002.6,0010.41,0045.64,0005.50
2022-10-12 00:32:00,,0822.3,4.99,0.00,29.5,27.9,00.0,38.4,31.3,15.2,0002.5,0010.32,0041.14,0005.54
2022-10-12 00:33:00,,0822.4,5.01,0.00,29.5,27.9,00.0,38.4,31.3,15.4,0002.1,0010.24,0039.18,0005.58
2022-10-12 00:34:00,,0822.4,5.01,0.00,29.5,27.9,00.0,38.4,31.3,15.4,0002.3,0010.16,0039.52,0005.63
2022-10-12 00:35:00,,0822.5,5.01,0.00,29.5,27.9,00.0,38.4,31.3,15.5,0001.9,0010.16,0038.81,0005.68
2022-10-12 00:36:00,,0822.4,4.99,0.00,29.5,27.9,00.0,38.4,31.3,15.4,0002.1,0010.23,0040.61,0005.73
2022-10-12 00:37:00,,0822.5,5.00,0.00,29.5,28.0,00.0,38.4,31.3,15.4,0001.9,0010.29,0041.87,0005.76
2022-10-12 00:38:00,,0822.5,5.01,0.00,29.5,28.0,00.0,38.4,31.3,15.6,0001.5,0010.27,0043.26,0005.79
2022-10-12 00:39:00,,0822.6,5.00,0.00,29.5,27.9,00.0,38.4,31.3,15.6,0001.8,0010.22,0042.55,0005.82
2022-10-12 00:40:00,,0822.7,5.00,0.00,29.5,27.9,00.0,38.4,31.3,15.6,0001.9,0010.17,0042.08,0005.86
2022-10-12 00:41:00,,0822.8,5.02,0.00,29.5,28.0,00.0,38.4,31.3,15.5,0002.0,0010.01,0042.37,0005.88
2022-10-12 00:42:00,,0822.8,5.00,0.00,29.5,28.0,00.0,38.4,31.3,15.6,0001.8,0009.90,0042.07,0005.91
2022-10-12 00:43:00,,0822.9,4.99,0.00,29.5,28.0,00.0,38.4,31.3,15.6,0001.6,0009.77,0041.06,0005.92
2022-10-12 00:44:00,,0822.9,5.00,0.00,29.5,28.0,00.0,38.4,31.3,15.6,0001.8,0009.69,0040.80,0005.93
2022-10-12 00:45:00,,0822.8,5.01,0.00,29.5,28.0,00.0,38.4,31.3,15.6,0001.5,0009.56,0039.70,0005.92
2022-10-12 00:46:00,,0822.8,4.99,0.00,29.5,28.0,00.0,38.4,31.3,15.6,0001.4,0009.41,0040.22,0005.91
2022-10-12 00:47:00,,0822.9,5.00,0.00,29.5,28.0,00.0,38.4,31.3,15.8,0001.3,0009.30,0039.56,0005.92
2022-10-12 00:48:00,,0823.0,5.01,0.00,29.5,28.0,00.0,38.4,31.3,15.8,0001.4,0009.23,0038.79,0005.95
2022-10-12 00:49:00,,0823.1,4.99,0.00,29.5,28.1,00.0,38.4,31.4,15.9,0001.6,0009.18,0037.49,0005.99
2022-10-12 00:50:00,,0823.2,5.00,0.00,29.5,28.2,00.0,38.4,31.4,15.8,0001.6,0009.07,0036.83,0006.01
2022-10-12 00:51:00,,0823.4,5.01,0.00,29.6,28.2,00.0,38.4,31.4,15.8,0001.6,0009.01,0036.07,0006.03
2022-10-12 00:52:00,,0823.4,5.00,0.00,29.6,28.2,00.0,38.4,31.4,15.8,0001.7,0009.00,0033.99,0006.07
2022-10-12 00:53:00,,0823.4,5.00,0.00,29.6,28.2,00.0,38.4,31.4,15.8,0001.9,0009.02,0034.10,0006.10
2022-10-12 00:54:00,,0823.3,5.00,0.00,29.6,28.3,00.0,38.4,31.4,15.8,0001.7,0009.01,0034.92,0006.12
2022-10-12 00:55:00,,0823.3,5.01,0.00,29.6,28.3,00.0,38.4,31.5,15.8,0001.9,0009.04,0034.56,0006.13
2022-10-12 00:56:00,,0823.4,5.00,0.00,29.6,28.3,00.0,38.4,31.5,15.8,0001.8,0009.14,0034.64,0006.15
2022-10-12 00:57:00,,0823.4,4.98,0.00,29.6,28.3,00.0,38.4,31.5,15.9,0001.9,0009.08,0033.61,0006.18
2022-10-12 00:58:00,,0823.6,5.01,0.00,29.7,28.4,00.0,38.4,31.5,15.9,0002.0,0009.01,0031.28,0006.18
2022-10-12 00:59:00,,0823.7,5.00,0.00,29.7,28.4,00.0,38.4,31.5,15.9,0002.0,0008.89,0030.89,0006.16
